[[{"header":{"parameterUnit":"m.s-1","parameterCategory":1,"la1":30.2991,"la2":30.254,"lo1":-89.0895,"lo2":-89.0444,"dy":0.0017,"dx":0.0017,"nx":28,"ny":28,"refTime":"2025-07-28T09:00:00:Z","depth":0,"parameterNumber":2,"parameterNumberName":"U-component_of_WINDS"},"data":[0,0,0,0,0,0,0,0,0,0,0,0,0,0,0,0,0,0,0,0,0,0,0,0,0,0,0,0,0,0,0,0,0,0,0,0,0,0,0,0,0,0,0,0,0,0,0,0,0,0,0,0,0,0,0,0,0,0,2.5404,2.5404,0,2.5407,2.5408,2.5408,2.5377,2.5376,2.5375,2.5374,2.5377,2.5378,2.5378,0,0,0,0,0,0,0,0,0,0,0,0,0,2.5374,2.5374,2.5404,2.5404,2.5405,2.5407,2.5408,2.5408,2.5377,2.5376,2.5375,2.5374,2.5376,2.5377,2.5378,0,0,0,0,0,0,0,0,0,0,0,0,0,2.5383,2.5375,2.5404,2.539,2.5388,2.5407,2.5408,2.5408,2.5377,2.5376,2.5375,2.5373,2.5376,2.5377,2.5379,2.5412,0,0,2.5383,2.5383,0,0,0,0,0,0,0,0,2.5382,2.5384,2.5392,2.5391,2.5389,2.539,2.5397,2.5409,2.5377,2.5381,2.5374,2.5373,2.5382,2.5383,2.5386,2.5412,2.5412,2.5383,2.5383,2.5384,2.5384,0,0,0,0,0,0,0,2.5382,2.5384,2.5406,2.5392,2.539,2.5383,2.5383,2.54,2.5389,2.5381,2.5379,2.5379,2.5381,2.5385,2.5386,2.5412,2.5383,2.5384,2.5385,2.5385,2.5469,2.547,0,0,0,0,0,0,2.5383,2.5383,2.5405,2.5406,2.5383,2.5385,2.5385,2.5391,2.5389,2.5387,2.5381,2.5378,2.5384,2.5385,2.5386,2.5427,2.5384,2.5385,2.5386,2.5467,2.5469,2.5471,0,0,0,0,0,0,2.5383,2.5385,2.5405,2.5394,2.5396,2.5387,2.5394,2.5392,2.5396,2.5388,2.5386,2.5386,2.5383,2.5384,2.5406,2.5426,2.5386,2.5387,2.5466,2.5468,2.547,2.5508,0,0,0,0,0,0,2.5382,2.5385,2.5397,2.5394,2.5397,2.5425,2.5396,2.5393,2.5398,2.5395,2.5393,2.5392,2.5382,2.5405,2.5408,2.5427,2.5388,2.5464,2.5467,2.5469,2.5504,2.5511,2.5516,0,0,0,0,0,2.5381,2.5407,2.5398,2.5401,2.5412,2.5426,2.5428,2.5416,2.54,2.5412,2.5408,2.5392,2.5424,2.5407,2.541,2.5431,2.5462,2.5466,2.5469,2.5502,2.551,2.5516,0,0,0,0,0,0,2.5411,2.5406,2.5396,2.5422,2.5425,2.5421,2.5436,2.5424,2.5431,2.5428,2.5413,2.5413,2.5438,2.5436,2.5418,2.5465,2.544,2.5444,2.5464,2.5472,2.5477,2.5477,2.5389,0,0,0,0,0,2.5421,2.5434,2.5429,2.5452,2.5454,2.5445,2.5451,2.5442,2.5445,2.5445,2.5443,2.5446,2.5457,2.5464,2.5473,2.5504,2.5505,2.552,2.5526,2.5531,2.5535,2.5553,2.5561,2.5481,2.5481,2.5481,0,0,2.5441,2.544,2.5449,2.5458,2.5459,2.5474,2.5446,2.5462,2.5472,2.5448,2.5469,2.5467,2.547,2.5497,2.5509,2.5497,2.5557,2.5535,2.5539,2.554,2.5558,2.5565,2.5572,2.5484,2.5483,2.5483,0,0,2.5486,2.5485,2.5506,2.5509,2.5511,2.5506,2.5511,2.551,2.5508,2.5529,2.5512,2.5525,2.5543,2.5547,2.5551,2.56,2.5586,2.5604,2.5634,2.5653,2.5659,2.5664,2.5684,2.569,2.5607,2.5607,2.5608,0,2.551,2.5531,2.5518,2.5536,2.5541,2.5521,2.5543,2.5546,2.5551,2.5556,2.5542,2.5568,2.5567,2.5597,2.5609,2.5613,2.5619,2.5603,2.5659,2.5664,2.5669,2.5688,2.5695,2.561,2.5609,2.5609,2.5609,0,2.5562,2.5577,2.5593,2.56,2.5608,2.5627,2.5619,2.5628,2.5619,2.5616,2.5639,2.5639,2.5649,2.5656,2.5646,2.5684,2.5677,2.5661,2.5637,2.5679,2.5696,2.5703,2.5613,2.5612,2.5611,2.5611,0,0,2.5624,2.5626,2.5633,2.5637,2.564,2.5651,2.5671,2.5682,2.5691,2.5696,2.5713,2.5731,2.5717,2.5722,2.5713,2.573,2.5771,2.5712,2.5712,2.5725,2.5816,2.5828,2.5836,2.5762,2.5764,2.5765,2.5816,0,2.5668,2.5701,2.5693,2.5726,2.5741,2.5723,2.5741,2.5745,2.5743,2.5755,2.5753,2.5766,2.5747,2.575,2.5765,2.5763,2.579,2.5759,2.5779,2.578,2.5779,2.5845,2.5857,2.5906,2.5822,2.5824,2.5824,0,2.5724,2.5733,2.5768,2.5772,2.5777,2.5793,2.5804,2.5816,2.5821,2.5819,2.5826,2.5815,2.5836,2.5811,2.5841,2.582,2.5828,2.5829,2.583,2.5832,2.5805,2.5849,2.592,2.5928,2.5834,2.5834,2.5833,0,2.5767,2.5788,2.5813,2.5817,2.5821,2.5833,2.5835,2.5839,2.5848,2.5857,2.5863,2.5874,2.5881,2.5891,2.5884,2.5867,2.5915,2.589,2.5915,2.5915,2.5925,2.5925,2.6,2.5929,2.5929,2.5929,2.5929,0,2.5818,2.5841,2.5833,2.5848,2.5874,2.5864,2.589,2.589,2.5895,2.5911,2.5896,2.5911,2.5901,2.5916,2.5911,2.5937,2.594,2.5939,2.5937,2.5941,2.5941,2.5946,2.5943,2.5931,2.5931,2.593,2.593,0,2.5871,2.5866,2.5892,2.5895,2.5896,2.5915,2.5918,2.5933,2.593,2.5951,2.5955,2.5952,2.5969,2.5963,2.598,2.5977,2.6011,2.6005,2.601,2.6008,2.6034,2.6032,2.6115,2.6126,2.6048,2.6049,2.6049,0,2.5903,2.5921,2.5926,2.5936,2.594,2.5956,2.5965,2.5957,2.5967,2.5976,2.599,2.6006,2.6018,2.6047,2.6046,2.606,2.6055,2.6083,2.6057,2.606,2.6057,2.6056,2.6059,2.6088,2.6089,2.609,2.609,0,2.5963,2.5961,2.5974,2.5988,2.5999,2.6009,2.6018,2.6027,2.602,2.6032,2.605,2.606,2.608,2.6096,2.611,2.6113,2.6101,2.6099,2.6106,2.6109,2.6112,2.6113,2.6025,2.6097,2.6096,2.6096,2.6095,2.6095,2.6008,2.6024,2.6031,2.6047,2.6053,2.6062,2.6077,2.6078,2.6093,2.6108,2.6103,2.6124,2.6132,2.6149,2.6154,2.6171,2.616,2.6169,2.6172,2.6174,2.6179,2.6109,2.6173,2.6173,2.6173,2.6172,2.6172,0,2.6068,2.6072,2.6087,2.6101,2.6115,2.6103,2.6114,2.6126,2.6144,2.6153,2.6166,2.6188,2.6205,2.6206,2.6222,2.6236,2.6231,2.6241,2.624,2.6241,2.6186,2.618,2.6244,2.6244,2.6244,2.6244,2.6244,2.6244,2.6101,2.6128,2.6127,2.6157,2.6161,2.6182,2.619,2.6199,2.6206,2.6231,2.6245,2.6246,2.6253,2.627,2.6285,2.6286,2.6293,2.6305,2.6303,2.6252,2.6245,2.6238,2.6231,2.6306,2.6306,2.6356,2.6357,2.6357]},{"header":{"parameterUnit":"m.s-1","parameterCategory":1,"la1":30.2991,"la2":30.254,"lo1":-89.0895,"lo2":-89.0444,"dy":0.0017,"dx":0.0017,"nx":28,"ny":28,"refTime":"2025-07-28T09:00:00:Z","depth":0,"parameterNumber":3,"parameterNumberName":"V-component_of_WINDS"},"data":[0,0,0,0,0,0,0,0,0,0,0,0,0,0,0,0,0,0,0,0,0,0,0,0,0,0,0,0,0,0,0,0,0,0,0,0,0,0,0,0,0,0,0,0,0,0,0,0,0,0,0,0,0,0,0,0,0,0,-3.5752,-3.5752,0,-3.5764,-3.5764,-3.5765,-3.5741,-3.574,-3.5739,-3.5739,-3.575,-3.5751,-3.5752,0,0,0,0,0,0,0,0,0,0,0,0,0,-3.5707,-3.5708,-3.5752,-3.5752,-3.5752,-3.5764,-3.5764,-3.5765,-3.5741,-3.574,-3.5739,-3.5738,-3.5749,-3.575,-3.5752,0,0,0,0,0,0,0,0,0,0,0,0,0,-3.5724,-3.5709,-3.5752,-3.5742,-3.5741,-3.5764,-3.5764,-3.5765,-3.5741,-3.574,-3.5739,-3.5738,-3.5749,-3.575,-3.5752,-3.5784,0,0,-3.5756,-3.5757,0,0,0,0,0,0,0,0,-3.5723,-3.5726,-3.5743,-3.5743,-3.5742,-3.575,-3.5753,-3.5771,-3.5742,-3.5741,-3.5739,-3.5737,-3.5751,-3.5752,-3.5757,-3.5785,-3.5785,-3.5757,-3.5758,-3.5758,-3.5759,0,0,0,0,0,0,0,-3.5722,-3.5725,-3.5757,-3.5743,-3.5743,-3.5737,-3.5738,-3.5756,-3.5752,-3.5741,-3.574,-3.5741,-3.575,-3.5755,-3.5757,-3.5786,-3.5757,-3.5758,-3.5759,-3.5759,-3.5844,-3.5845,0,0,0,0,0,0,-3.5722,-3.5724,-3.5756,-3.5757,-3.5729,-3.5739,-3.574,-3.5748,-3.5752,-3.5751,-3.5742,-3.574,-3.5753,-3.5755,-3.5757,-3.5797,-3.5758,-3.576,-3.576,-3.5843,-3.5844,-3.5846,0,0,0,0,0,0,-3.5721,-3.5725,-3.5756,-3.574,-3.5744,-3.5741,-3.5751,-3.5749,-3.5755,-3.5753,-3.5752,-3.5749,-3.5752,-3.5755,-3.5779,-3.5797,-3.576,-3.5762,-3.5841,-3.5843,-3.5845,-3.5877,0,0,0,0,0,0,-3.572,-3.5725,-3.5737,-3.5741,-3.5745,-3.5777,-3.5752,-3.575,-3.5758,-3.5755,-3.5758,-3.5758,-3.5752,-3.5776,-3.578,-3.5799,-3.5763,-3.5839,-3.5842,-3.5844,-3.5874,-3.588,-3.5885,0,0,0,0,0,-3.5719,-3.5745,-3.5738,-3.5742,-3.576,-3.5778,-3.578,-3.5773,-3.5759,-3.5772,-3.5771,-3.5758,-3.5795,-3.5779,-3.5783,-3.5802,-3.5838,-3.5841,-3.5844,-3.5872,-3.5879,-3.5885,0,0,0,0,0,0,-3.5742,-3.5745,-3.5737,-3.5765,-3.5772,-3.5774,-3.579,-3.578,-3.579,-3.5787,-3.5777,-3.5779,-3.5805,-3.5806,-3.5788,-3.5835,-3.5814,-3.5818,-3.5834,-3.584,-3.5845,-3.5845,-3.5764,0,0,0,0,0,-3.5751,-3.5766,-3.5767,-3.5792,-3.5796,-3.5792,-3.58,-3.5794,-3.58,-3.5803,-3.5803,-3.5809,-3.5823,-3.5831,-3.5843,-3.5874,-3.5876,-3.589,-3.5895,-3.5899,-3.5903,-3.5922,-3.5928,-3.5856,-3.5856,-3.5856,0,0,-3.5768,-3.5772,-3.5781,-3.5797,-3.5801,-3.5817,-3.5795,-3.5812,-3.5824,-3.5805,-3.5828,-3.5829,-3.5835,-3.5864,-3.5876,-3.5865,-3.5923,-3.5903,-3.5906,-3.5908,-3.5925,-3.5932,-3.5939,-3.5858,-3.5857,-3.5857,0,0,-3.5809,-3.5812,-3.5834,-3.584,-3.5848,-3.5846,-3.5851,-3.5856,-3.5856,-3.5879,-3.5866,-3.588,-3.5902,-3.5908,-3.5914,-3.596,-3.5949,-3.5964,-3.5991,-3.601,-3.6016,-3.6021,-3.6039,-3.6045,-3.5968,-3.5968,-3.5968,0,-3.5829,-3.5854,-3.5847,-3.5866,-3.5874,-3.5859,-3.5882,-3.5887,-3.5898,-3.5904,-3.5892,-3.5922,-3.5924,-3.5955,-3.5967,-3.5971,-3.5978,-3.5964,-3.6015,-3.602,-3.6025,-3.6042,-3.6049,-3.597,-3.5969,-3.5969,-3.5969,0,-3.588,-3.5897,-3.5914,-3.5927,-3.5936,-3.5957,-3.5954,-3.5964,-3.5959,-3.5958,-3.5983,-3.5986,-3.6,-3.6007,-3.6,-3.6037,-3.603,-3.6017,-3.5995,-3.6034,-3.605,-3.6056,-3.5972,-3.5972,-3.5971,-3.5971,0,0,-3.5934,-3.5945,-3.5951,-3.5958,-3.5967,-3.598,-3.6001,-3.6015,-3.6025,-3.6033,-3.6052,-3.6072,-3.6061,-3.6068,-3.6062,-3.6078,-3.6117,-3.6063,-3.6063,-3.6074,-3.616,-3.6171,-3.6178,-3.6109,-3.6111,-3.6112,-3.616,0,-3.5975,-3.6013,-3.6008,-3.6044,-3.6061,-3.6048,-3.6067,-3.6074,-3.6075,-3.6089,-3.609,-3.6105,-3.6088,-3.6093,-3.6108,-3.6109,-3.6134,-3.6105,-3.6127,-3.6128,-3.6127,-3.6186,-3.6197,-3.6243,-3.6166,-3.6167,-3.6168,0,-3.6028,-3.6041,-3.6079,-3.6088,-3.6095,-3.6112,-3.6126,-3.614,-3.6148,-3.6148,-3.6157,-3.6149,-3.6171,-3.6149,-3.618,-3.616,-3.6169,-3.6171,-3.6173,-3.6175,-3.6151,-3.6192,-3.6257,-3.6264,-3.6177,-3.6176,-3.6176,0,-3.6067,-3.6093,-3.612,-3.6126,-3.6136,-3.6148,-3.6153,-3.6161,-3.6171,-3.6183,-3.619,-3.6204,-3.6212,-3.6223,-3.622,-3.6204,-3.6252,-3.6229,-3.6253,-3.6253,-3.6264,-3.6263,-3.6332,-3.6267,-3.6267,-3.6267,-3.6267,0,-3.6114,-3.6138,-3.6137,-3.6154,-3.6181,-3.6176,-3.6203,-3.6206,-3.6214,-3.6231,-3.622,-3.6237,-3.6231,-3.6247,-3.6244,-3.6271,-3.6274,-3.6275,-3.6274,-3.6276,-3.6277,-3.6283,-3.628,-3.6269,-3.6269,-3.6268,-3.6268,0,-3.6161,-3.6161,-3.619,-3.6198,-3.6201,-3.6221,-3.6228,-3.6244,-3.6245,-3.6267,-3.6272,-3.6273,-3.6292,-3.6289,-3.6309,-3.6308,-3.6342,-3.6336,-3.6339,-3.6339,-3.6363,-3.6362,-3.6439,-3.645,-3.6377,-3.6378,-3.6378,0,-3.6192,-3.621,-3.6222,-3.6233,-3.624,-3.6258,-3.6269,-3.6265,-3.6277,-3.629,-3.6305,-3.6323,-3.6337,-3.6368,-3.637,-3.6386,-3.6382,-3.6408,-3.6384,-3.6387,-3.6385,-3.6384,-3.6387,-3.6413,-3.6414,-3.6415,-3.6415,0,-3.6247,-3.6247,-3.6263,-3.6281,-3.6295,-3.6308,-3.6319,-3.6329,-3.6327,-3.6341,-3.6361,-3.6372,-3.6395,-3.6413,-3.6429,-3.6434,-3.6425,-3.6423,-3.643,-3.6433,-3.6435,-3.6436,-3.6354,-3.6421,-3.6421,-3.642,-3.642,-3.642,-3.6288,-3.6305,-3.6316,-3.6336,-3.6345,-3.6357,-3.6373,-3.6377,-3.6394,-3.6413,-3.641,-3.6433,-3.6443,-3.6464,-3.647,-3.6488,-3.6479,-3.6488,-3.649,-3.6493,-3.6497,-3.6431,-3.6491,-3.6491,-3.6491,-3.649,-3.649,0,-3.6344,-3.6351,-3.6369,-3.6388,-3.6404,-3.6395,-3.6408,-3.6422,-3.6443,-3.6454,-3.6469,-3.6493,-3.6512,-3.6517,-3.6535,-3.6549,-3.6545,-3.6554,-3.6553,-3.6555,-3.6503,-3.6497,-3.6556,-3.6556,-3.6556,-3.6556,-3.6556,-3.6556,-3.6375,-3.6404,-3.6406,-3.6441,-3.6448,-3.6471,-3.648,-3.6492,-3.6501,-3.6529,-3.6545,-3.6548,-3.6557,-3.6577,-3.6594,-3.6595,-3.6602,-3.6613,-3.6613,-3.6565,-3.6558,-3.6552,-3.6546,-3.6614,-3.6615,-3.6663,-3.6663,-3.6663]}]]